Time,TemperatureF,DewpointF,PressureIn,WindDirection,WindDirectionDegrees,WindSpeedMPH,WindSpeedGustMPH,Humidity,HourlyPrecipIn,Conditions,Clouds,dailyrainin,SoftwareType,DateUTC
2013-10-08 00:00:00,50.9,50.0,30.07,NE,56,1.0,3.0,95,0.00,,,0.00,weatherlink.com 1.10,2013-10-08 04:00:00,
2013-10-08 00:15:00,50.6,50.0,30.07,North,352,3.0,5.0,96,0.00,,,0.00,weatherlink.com 1.10,2013-10-08 04:15:00,
2013-10-08 00:30:00,50.4,49.0,30.07,NNE,24,3.0,4.0,96,0.00,,,0.00,weatherlink.com 1.10,2013-10-08 04:30:00,
2013-10-08 00:45:00,50.1,49.0,30.07,NNE,26,3.0,4.0,96,0.00,,,0.00,weatherlink.com 1.10,2013-10-08 04:45:00,
2013-10-08 01:00:00,49.9,49.0,30.07,NNE,29,2.0,4.0,96,0.00,,,0.00,weatherlink.com 1.10,2013-10-08 05:00:00,
2013-10-08 01:15:00,49.9,49.0,30.07,NNW,333,2.0,4.0,96,0.00,,,0.00,weatherlink.com 1.10,2013-10-08 05:15:00,
2013-10-08 01:30:00,49.4,48.0,30.08,NW,315,1.0,3.0,96,0.00,,,0.00,weatherlink.com 1.10,2013-10-08 05:30:00,
2013-10-08 01:45:00,49.1,48.0,30.07,NE,48,1.0,3.0,97,0.00,,,0.00,weatherlink.com 1.10,2013-10-08 05:45:00,
2013-10-08 02:00:00,49.3,49.0,30.07,NNE,30,2.0,4.0,97,0.00,,,0.00,weatherlink.com 1.10,2013-10-08 06:00:00,
2013-10-08 02:15:00,49.0,48.0,30.08,ENE,60,1.0,3.0,97,0.00,,,0.00,weatherlink.com 1.10,2013-10-08 06:15:00,
2013-10-08 02:30:00,48.9,48.0,30.08,North,1,0.0,3.0,97,0.00,,,0.00,weatherlink.com 1.10,2013-10-08 06:30:00,
2013-10-08 02:45:00,48.7,48.0,30.08,NNE,26,0.0,2.0,97,0.00,,,0.00,weatherlink.com 1.10,2013-10-08 06:45:00,
2013-10-08 03:00:00,48.5,48.0,30.08,NNW,339,1.0,3.0,96,0.00,,,0.00,weatherlink.com 1.10,2013-10-08 07:00:00,
2013-10-08 03:15:00,48.5,48.0,30.08,NNE,30,3.0,3.0,96,0.00,,,0.00,weatherlink.com 1.10,2013-10-08 07:15:00,
2013-10-08 03:30:00,48.2,47.0,30.08,North,353,2.0,5.0,97,0.00,,,0.00,weatherlink.com 1.10,2013-10-08 07:30:00,
2013-10-08 03:45:00,47.7,47.0,30.09,NNE,26,4.0,4.0,96,0.00,,,0.00,weatherlink.com 1.10,2013-10-08 07:45:00,
2013-10-08 04:00:00,47.7,47.0,30.09,NNE,26,4.0,6.0,96,0.00,,,0.00,weatherlink.com 1.10,2013-10-08 08:00:00,
2013-10-08 04:15:00,47.1,46.0,30.09,NNW,335,3.0,8.0,96,0.00,,,0.00,weatherlink.com 1.10,2013-10-08 08:15:00,
2013-10-08 04:31:00,46.1,45.0,30.09,NNW,337,2.0,9.0,96,0.00,,,0.00,weatherlink.com 1.10,2013-10-08 08:31:00,
2013-10-08 04:46:00,45.9,45.0,30.09,NNE,12,6.0,9.0,97,0.00,,,0.00,weatherlink.com 1.10,2013-10-08 08:46:00,
2013-10-08 05:01:00,46.1,45.0,30.10,NNW,348,6.0,9.0,97,0.00,,,0.00,weatherlink.com 1.10,2013-10-08 09:01:00,
2013-10-08 05:16:00,46.0,45.0,30.11,NNE,25,4.0,8.0,97,0.00,,,0.00,weatherlink.com 1.10,2013-10-08 09:16:00,
2013-10-08 05:31:00,46.1,45.0,30.11,NNE,15,5.0,9.0,97,0.00,,,0.00,weatherlink.com 1.10,2013-10-08 09:31:00,
2013-10-08 05:46:00,46.1,45.0,30.11,NNE,15,5.0,6.0,97,0.00,,,0.00,weatherlink.com 1.10,2013-10-08 09:46:00,
2013-10-08 06:01:00,46.0,45.0,30.12,North,355,6.0,6.0,97,0.00,,,0.00,weatherlink.com 1.10,2013-10-08 10:01:00,
2013-10-08 06:16:00,46.2,46.0,30.13,North,11,2.0,5.0,98,0.00,,,0.00,weatherlink.com 1.10,2013-10-08 10:16:00,
2013-10-08 06:31:00,45.8,45.0,30.14,NNE,33,2.0,5.0,97,0.00,,,0.00,weatherlink.com 1.10,2013-10-08 10:31:00,
2013-10-08 06:46:00,45.7,45.0,30.14,NE,34,3.0,4.0,98,0.00,,,0.00,weatherlink.com 1.10,2013-10-08 10:46:00,
2013-10-08 07:01:00,45.6,45.0,30.14,NNE,27,3.0,4.0,97,0.00,,,0.00,weatherlink.com 1.10,2013-10-08 11:01:00,
2013-10-08 07:16:00,45.1,44.0,30.15,East,101,0.0,6.0,97,0.00,,,0.00,weatherlink.com 1.10,2013-10-08 11:16:00,
2013-10-08 07:31:00,45.0,44.0,30.15,NNW,330,0.0,4.0,97,0.00,,,0.00,weatherlink.com 1.10,2013-10-08 11:31:00,
2013-10-08 07:46:00,44.9,44.0,30.16,NNE,15,1.0,3.0,98,0.00,,,0.00,weatherlink.com 1.10,2013-10-08 11:46:00,
2013-10-08 08:01:00,44.7,44.0,30.17,NNW,330,1.0,4.0,98,0.00,,,0.00,weatherlink.com 1.10,2013-10-08 12:01:00,
2013-10-08 08:16:00,45.0,45.0,30.17,NNW,333,1.0,1.0,98,0.00,,,0.00,weatherlink.com 1.10,2013-10-08 12:16:00,
2013-10-08 08:31:00,45.0,45.0,30.18,ESE,105,0.0,3.0,98,0.00,,,0.00,weatherlink.com 1.10,2013-10-08 12:31:00,
2013-10-08 08:46:00,45.1,45.0,30.19,SSE,156,0.0,3.0,98,0.00,,,0.00,weatherlink.com 1.10,2013-10-08 12:46:00,
2013-10-08 09:01:00,45.6,45.0,30.19,SSW,207,0.0,3.0,98,0.00,,,0.00,weatherlink.com 1.10,2013-10-08 13:01:00,
2013-10-08 09:16:00,46.1,46.0,30.20,ENE,60,0.0,2.0,98,0.00,,,0.00,weatherlink.com 1.10,2013-10-08 13:16:00,
2013-10-08 09:31:00,46.4,46.0,30.20,SE,125,1.0,2.0,98,0.00,,,0.00,weatherlink.com 1.10,2013-10-08 13:31:00,
2013-10-08 09:46:00,46.8,46.0,30.21,NNW,328,1.0,3.0,98,0.00,,,0.00,weatherlink.com 1.10,2013-10-08 13:46:00,
2013-10-08 10:01:00,47.2,46.0,30.21,North,352,2.0,5.0,97,0.00,,,0.00,weatherlink.com 1.10,2013-10-08 14:01:00,
2013-10-08 10:16:00,48.4,48.0,30.21,NNW,333,3.0,5.0,97,0.00,,,0.00,weatherlink.com 1.10,2013-10-08 14:16:00,
2013-10-08 10:31:00,49.1,48.0,30.21,NNE,26,3.0,4.0,97,0.00,,,0.00,weatherlink.com 1.10,2013-10-08 14:31:00,
2013-10-08 10:46:00,50.6,49.0,30.20,NNW,340,5.0,5.0,95,0.00,,,0.00,weatherlink.com 1.10,2013-10-08 14:46:00,
2013-10-08 11:01:00,52.7,50.0,30.21,North,8,1.0,7.0,91,0.00,,,0.00,weatherlink.com 1.10,2013-10-08 15:01:00,
2013-10-08 11:16:00,54.6,51.0,30.20,NNE,23,3.0,7.0,87,0.00,,,0.00,weatherlink.com 1.10,2013-10-08 15:16:00,
2013-10-08 11:31:00,56.5,51.0,30.20,North,10,6.0,7.0,82,0.00,,,0.00,weatherlink.com 1.10,2013-10-08 15:31:00,
2013-10-08 11:47:00,57.6,51.0,30.20,NNW,328,3.0,6.0,79,0.00,,,0.00,weatherlink.com 1.10,2013-10-08 15:47:00,
2013-10-08 12:02:00,59.9,51.0,30.19,SW,221,1.0,9.0,73,0.00,,,0.00,weatherlink.com 1.10,2013-10-08 16:02:00,
2013-10-08 12:17:00,62.9,49.0,30.19,SSW,198,5.0,16.0,60,0.01,,,0.01,weatherlink.com 1.10,2013-10-08 16:17:00,
2013-10-08 12:32:00,63.2,49.0,30.20,South,190,7.0,12.0,61,0.01,,,0.01,weatherlink.com 1.10,2013-10-08 16:32:00,
2013-10-08 12:47:00,63.4,49.0,30.18,SE,131,3.0,13.0,59,0.01,,,0.01,weatherlink.com 1.10,2013-10-08 16:47:00,
2013-10-08 13:02:00,62.6,47.0,30.18,ESE,120,4.0,13.0,58,0.01,,,0.01,weatherlink.com 1.10,2013-10-08 17:02:00,
2013-10-08 13:17:00,64.1,48.0,30.17,SW,214,3.0,11.0,57,0.00,,,0.01,weatherlink.com 1.10,2013-10-08 17:17:00,
2013-10-08 13:32:00,64.8,48.0,30.16,South,181,8.0,16.0,54,0.00,,,0.01,weatherlink.com 1.10,2013-10-08 17:32:00,
2013-10-08 13:47:00,65.7,48.0,30.15,South,183,4.0,13.0,54,0.00,,,0.01,weatherlink.com 1.10,2013-10-08 17:47:00,
2013-10-08 14:02:00,66.4,49.0,30.15,SSE,159,5.0,15.0,53,0.00,,,0.01,weatherlink.com 1.10,2013-10-08 18:02:00,
2013-10-08 14:17:00,66.2,48.0,30.15,SSE,155,5.0,17.0,53,0.00,,,0.01,weatherlink.com 1.10,2013-10-08 18:17:00,
2013-10-08 14:32:00,66.8,49.0,30.14,SSE,155,4.0,9.0,54,0.00,,,0.01,weatherlink.com 1.10,2013-10-08 18:32:00,
2013-10-08 14:47:00,66.9,50.0,30.14,South,190,6.0,10.0,54,0.00,,,0.01,weatherlink.com 1.10,2013-10-08 18:47:00,
2013-10-08 15:02:00,67.1,50.0,30.14,SE,138,4.0,13.0,54,0.00,,,0.01,weatherlink.com 1.10,2013-10-08 19:02:00,
2013-10-08 15:17:00,66.3,49.0,30.15,South,180,7.0,14.0,55,0.00,,,0.01,weatherlink.com 1.10,2013-10-08 19:17:00,
2013-10-08 15:32:00,67.2,51.0,30.14,SE,125,3.0,13.0,56,0.00,,,0.01,weatherlink.com 1.10,2013-10-08 19:32:00,
2013-10-08 15:47:00,68.5,51.0,30.14,SSE,162,2.0,9.0,54,0.00,,,0.01,weatherlink.com 1.10,2013-10-08 19:47:00,
2013-10-08 16:02:00,68.5,51.0,30.14,SSW,193,6.0,11.0,54,0.00,,,0.01,weatherlink.com 1.10,2013-10-08 20:02:00,
2013-10-08 16:17:00,68.3,50.0,30.14,South,177,7.0,13.0,52,0.00,,,0.01,weatherlink.com 1.10,2013-10-08 20:17:00,
2013-10-08 16:32:00,68.2,49.0,30.15,South,181,9.0,13.0,51,0.00,,,0.01,weatherlink.com 1.10,2013-10-08 20:32:00,
2013-10-08 16:47:00,67.7,50.0,30.15,South,170,6.0,11.0,54,0.00,,,0.01,weatherlink.com 1.10,2013-10-08 20:47:00,
2013-10-08 17:02:00,67.6,51.0,30.15,SSW,192,4.0,11.0,55,0.00,,,0.01,weatherlink.com 1.10,2013-10-08 21:02:00,
2013-10-08 17:17:00,68.0,52.0,30.15,SSW,199,1.0,11.0,56,0.00,,,0.01,weatherlink.com 1.10,2013-10-08 21:17:00,
2013-10-08 17:32:00,67.0,51.0,30.15,SE,141,5.0,10.0,57,0.00,,,0.01,weatherlink.com 1.10,2013-10-08 21:32:00,
2013-10-08 17:47:00,66.6,51.0,30.16,East,97,6.0,12.0,58,0.00,,,0.01,weatherlink.com 1.10,2013-10-08 21:47:00,
2013-10-08 18:02:00,65.8,51.0,30.16,South,169,7.0,11.0,60,0.00,,,0.01,weatherlink.com 1.10,2013-10-08 22:02:00,
2013-10-08 18:17:00,64.5,51.0,30.16,SSE,150,5.0,-999.0,63,-99.99,,,0.01,weatherlink.com 1.10,2013-10-08 22:17:00,
2013-10-08 18:32:00,62.7,52.0,30.16,South,176,6.0,11.0,67,0.00,,,0.01,weatherlink.com 1.10,2013-10-08 22:32:00,
2013-10-08 18:47:00,61.8,51.0,30.17,SSW,194,6.0,8.0,68,0.00,,,0.01,weatherlink.com 1.10,2013-10-08 22:47:00,
2013-10-08 19:02:00,61.2,51.0,30.17,SSE,160,4.0,7.0,70,0.00,,,0.01,weatherlink.com 1.10,2013-10-08 23:02:00,
2013-10-08 19:17:00,60.5,51.0,30.17,SSE,159,3.0,10.0,71,0.00,,,0.01,weatherlink.com 1.10,2013-10-08 23:17:00,
2013-10-08 19:32:00,59.9,50.0,30.17,South,179,5.0,10.0,70,0.00,,,0.01,weatherlink.com 1.10,2013-10-08 23:32:00,
2013-10-08 19:47:00,59.3,50.0,30.18,SSE,162,9.0,9.0,71,0.00,,,0.01,weatherlink.com 1.10,2013-10-08 23:47:00,
2013-10-08 20:02:00,58.8,49.0,30.18,SSE,152,5.0,9.0,71,0.00,,,0.01,weatherlink.com 1.10,2013-10-09 00:02:00,
2013-10-08 20:17:00,58.4,49.0,30.18,SSE,150,7.0,10.0,72,0.00,,,0.01,weatherlink.com 1.10,2013-10-09 00:17:00,
2013-10-08 20:32:00,58.1,49.0,30.19,South,170,4.0,11.0,73,0.00,,,0.01,weatherlink.com 1.10,2013-10-09 00:32:00,
2013-10-08 20:47:00,57.3,50.0,30.20,SSE,161,3.0,6.0,77,0.00,,,0.01,weatherlink.com 1.10,2013-10-09 00:47:00,
2013-10-08 21:02:00,56.8,50.0,30.20,SE,135,3.0,6.0,79,0.00,,,0.01,weatherlink.com 1.10,2013-10-09 01:02:00,
2013-10-08 21:17:00,56.0,50.0,30.21,South,169,2.0,7.0,81,0.00,,,0.01,weatherlink.com 1.10,2013-10-09 01:17:00,
2013-10-08 21:32:00,55.5,50.0,30.21,SE,141,4.0,9.0,83,0.00,,,0.01,weatherlink.com 1.10,2013-10-09 01:32:00,
2013-10-08 21:47:00,55.0,51.0,30.22,South,190,4.0,8.0,86,0.00,,,0.01,weatherlink.com 1.10,2013-10-09 01:47:00,
2013-10-08 22:02:00,54.7,50.0,30.22,South,181,4.0,8.0,85,0.00,,,0.01,weatherlink.com 1.10,2013-10-09 02:02:00,
2013-10-08 22:17:00,55.1,49.0,30.22,WNW,291,6.0,9.0,81,0.00,,,0.01,weatherlink.com 1.10,2013-10-09 02:17:00,
2013-10-08 22:32:00,55.8,49.0,30.22,South,173,6.0,12.0,78,0.00,,,0.01,weatherlink.com 1.10,2013-10-09 02:32:00,
2013-10-08 22:47:00,55.8,49.0,30.22,ESE,115,2.0,10.0,78,0.00,,,0.01,weatherlink.com 1.10,2013-10-09 02:47:00,
2013-10-08 23:03:00,55.5,49.0,30.23,SSE,149,0.0,7.0,78,0.00,,,0.01,weatherlink.com 1.10,2013-10-09 03:03:00,
2013-10-08 23:18:00,54.6,49.0,30.23,SW,215,0.0,2.0,82,0.00,,,0.01,weatherlink.com 1.10,2013-10-09 03:18:00,
2013-10-08 23:33:00,52.8,49.0,30.23,NE,56,0.0,1.0,86,0.00,,,0.01,weatherlink.com 1.10,2013-10-09 03:33:00,
2013-10-08 23:48:00,51.7,48.0,30.23,ENE,60,1.0,3.0,88,0.00,,,0.01,weatherlink.com 1.10,2013-10-09 03:48:00,